Flag for U.S.A. Weather past 2 weeks in Wilmington, Delaware, U.S.A.

Now
38 °F

Clear.


Feels Like: 31 °F
Forecast: 33 / 51 °F
Wind: 9 mph from Northeast

Location: New Castle County Airport


UV Index: 5 (Moderate)

Visibility: 10 mi


Pressure: 30.58 "Hg

Humidity: 46%

Dew point: 19 °F

Location of WilmingtonLocation

Historic Weather in Wilmington

°F

Wilmington temperature yesterday

Maximum temperature yesterday: 49 °F (at 4:51 PM)
Minimum temperature yesterday: 31 °F (at 5:51 AM)
Average temperature yesterday: 40 °F

Past Weeks' High & Low Weather Summary

 TemperatureHumidityPressure
High82 °F (Apr 13, 2:51 PM)100% (Apr 8, 12:51 AM)30.58 "Hg (Apr 8, 12:51 AM)
Low31 °F (Apr 16, 5:51 AM)20% (Apr 3, 12:51 PM)29.47 "Hg (Apr 8, 6:51 AM)
Average54 °F63%30.00 "Hg
* Reported Apr 2 12:51 AM — Apr 17 12:51 AM, Wilmington, Weather by CustomWeather, © 2014

Note: Actual official high and low records may vary slightly from our data, if they occured in-between our weather recording intervals... More about our weather records

Advertising

Historic Weather Conditions — Data for Previous 24 hours

 ConditionsComfort  
Time TempWeatherWind HumidityBarometerVisibility
12:51 AM
Apr 17
38 °FClear.8 mph48%30.58 "Hg10 mi
11:51 PM
Apr 16
38 °FClear.6 mph51%30.56 "Hg10 mi
10:51 PM39 °FClear.7 mph48%30.55 "Hg10 mi
9:51 PM40 °FClear.6 mph45%30.53 "Hg10 mi
8:51 PM40 °FClear.7 mph47%30.51 "Hg10 mi
7:51 PM43 °FSunny.9 mph38%30.48 "Hg10 mi
6:51 PM47 °FSunny.10 mph33%30.46 "Hg10 mi
5:51 PM49 °FSunny.9 mph31%30.44 "Hg10 mi
4:51 PM49 °FSunny.10 mph31%30.43 "Hg10 mi
3:51 PM48 °FSunny.16 mph32%30.44 "Hg10 mi
2:51 PM47 °FSunny.13 mph32%30.45 "Hg10 mi
1:51 PM46 °FSunny.18 mph34%30.45 "Hg10 mi
12:51 PM44 °FSunny.13 mph35%30.44 "Hg10 mi
11:51 AM42 °FSunny.15 mph38%30.44 "Hg10 mi
10:51 AM38 °FSunny.17 mph41%30.42 "Hg10 mi
9:51 AM36 °FSunny.17 mph44%30.38 "Hg10 mi
8:51 AM34 °FSunny.22 mph42%30.35 "Hg10 mi
7:51 AM32 °FSunny.20 mph43%30.32 "Hg10 mi
6:51 AM31 °FClear.14 mph45%30.27 "Hg10 mi
5:51 AM31 °FClear.22 mph45%30.22 "Hg10 mi
4:51 AM32 °FClear.23 mph47%30.17 "Hg10 mi
3:51 AM33 °FClear.23 mph52%30.14 "Hg10 mi
2:51 AM35 °FPassing clouds.25 mph59%30.04 "Hg10 mi
Weather by CustomWeather, © 2014

See weather overview